User: anonymous
Location: Moonridge Observatory
(39.2268°N, 77.7914°W)
Time: 13:53:33
(UTC-04:00)
Language:

CZ-2C R/B - Orbit

View from above orbital plane
View from above orbital plane
View from above satellite
View from above satellite

Ground track
Ground track

The orbit data is extracted from the following two-line orbital elements,

1 28480U 04046B   14271.55648716  .00000200  00000-0  92429-4 0  4529
2 28480 098.1040 059.6532 0141364 276.0799 125.0693 14.25335160512818
Epoch (UTC): 28 September 2014 13:21:20
Eccentricity: 0.0141364
inclination: 98.1040°
perigee height: 706 km
apogee height: 909 km
right ascension of ascending node: 59.6532°
argument of perigee: 276.0799°
revolutions per day: 14.25335160
mean anomaly at epoch: 125.0693°
orbit number at epoch: 51281

The dashed part of the orbit path shows where the satellite is in the earth's shadow,  

DLR